Melilla, Spain

1:01 AM CET on December 18, 2017 (GMT +0100)
Melilla

Weather History for GEML - December, 2012

Change the Weather History Date:

Friday, December 14, 2012

  Actual Average Record
Temperature  
Mean Temperature 59 °F -  
Max Temperature 68 °F 63 °F 73 °F (2000)
Min Temperature 50 °F 52 °F 48 °F (2005)
Degree Days  
Heating Degree Days 6    
Growing Degree Days 9 (Base 50)    
Moisture  
Dew Point 46 °F    
Average Humidity 62    
Maximum Humidity 88    
Minimum Humidity 39    
Precipitation  
Precipitation 0.00 in 0.07 in - ()
Sea Level Pressure  
Sea Level Pressure 30.09 in    
Wind  
Wind Speed 1 mph ()    
Max Wind Speed 6 mph    
Max Gust Speed -    
Visibility 9.0 miles    
Events      
Averages and records for this station are not official NWS values.
T = Trace of Precipitation, MM = Missing Value Source: Averaged Metar Reports

Daily Weather History Graph

Daily Weather History Graph

Search for Another Location

Airport or City:

Trip Planner

Search our weather history database for the weather conditions in past years. The results will help you decide how hot, cold, wet, or windy it might be!

Date:

Astronomy

Dec. 14, 2012 Rise Set
Actual Time 8:12 AM CET 6:00 PM CET
Civil Twilight 7:44 AM CET 6:28 PM CET
Nautical Twilight 7:12 AM CET 7:00 PM CET
Astronomical Twilight 6:41 AM CET 7:31 PM CET
Moon 9:06 AM CET (12/14) 7:34 PM CET (12/14)
Length of Visible Light 10h 44m
Length of Day
9h 47m
New Moon, 2% of the Moon is Illuminated
Dec 14
New Moon
Dec 20
First Quarter
Dec 28
Full
Jan 5
Last Quarter
Jan 11
New

Hourly Weather History & Observations

Time (CET) Temp. Dew Point Humidity Pressure Visibility Wind Dir Wind Speed Gust Speed Precip Events Conditions
6:00 AM 50.0 °F 44.6 °F 82% 30.09 in 6.2 mi Calm Calm - N/A   Partly Cloudy
6:30 AM 51.8 °F 46.4 °F 82% 30.09 in 6.2 mi Calm Calm - N/A   Partly Cloudy
7:00 AM 51 °F 46 °F 78% 30.10 in 16 mi SW 2.3 mph - -   Scattered Clouds
7:00 AM 50.0 °F 44.6 °F 82% 30.09 in 6.2 mi Calm Calm - N/A   Partly Cloudy
7:30 AM 51.8 °F 48.2 °F 88% 30.09 in 6.2 mi Calm Calm - N/A   Partly Cloudy
8:00 AM 50.0 °F 46.4 °F 87% 30.09 in - Calm Calm - N/A   Clear
8:30 AM 50.0 °F 46.4 °F 87% 30.09 in - Calm Calm - N/A   Clear
9:00 AM 51.8 °F 48.2 °F 88% 30.09 in - Calm Calm - N/A   Clear
9:30 AM 53.6 °F 50.0 °F 88% 30.09 in - Calm Calm - N/A   Clear
10:00 AM 55.4 °F 50.0 °F 82% 30.09 in - Calm Calm - N/A   Clear
10:30 AM 59.0 °F 48.2 °F 67% 30.12 in - Calm Calm - N/A   Clear
11:00 AM 60.8 °F 50.0 °F 68% 30.12 in 6.2 mi Calm Calm - N/A   Partly Cloudy
11:30 AM 64.4 °F 48.2 °F 56% 30.12 in - Calm Calm - N/A   Clear
12:00 PM 64.4 °F 48.2 °F 56% 30.12 in - East 3.5 mph - N/A   Clear
12:30 PM 64.4 °F 46.4 °F 52% 30.09 in - Variable 2.3 mph - N/A   Clear
1:00 PM 66 °F 47 °F 39% 30.10 in 16 mi ESE 2.3 mph - -   Clear
1:00 PM 66.2 °F 50.0 °F 56% 30.09 in - Variable 2.3 mph - N/A   Clear
1:30 PM 68.0 °F 46.4 °F 46% 30.09 in - Variable 2.3 mph - N/A   Clear
2:00 PM 68.0 °F 44.6 °F 43% 30.09 in - West 3.5 mph - N/A   Clear
2:30 PM 68.0 °F 42.8 °F 40% 30.06 in - WNW 3.5 mph - N/A   Clear
3:00 PM 68.0 °F 42.8 °F 40% 30.06 in - NW 4.6 mph - N/A   Clear
3:30 PM 68.0 °F 46.4 °F 46% 30.06 in - NW 3.5 mph - N/A   Clear
4:00 PM 66.2 °F 41.0 °F 40% 30.06 in - Variable 2.3 mph - N/A   Clear
4:30 PM 66.2 °F 42.8 °F 43% 30.06 in - NW 3.5 mph - N/A   Clear
5:00 PM 66.2 °F 42.8 °F 43% 30.09 in - Calm Calm - N/A   Clear
5:30 PM 66.2 °F 46.4 °F 49% 30.09 in - Calm Calm - N/A   Clear
6:00 PM 62.6 °F 48.2 °F 59% 30.09 in - WSW 3.5 mph - N/A   Clear
6:30 PM 60.8 °F 46.4 °F 59% 30.09 in - WSW 5.8 mph - N/A   Clear
7:00 PM 61 °F 46 °F 46% 30.12 in 25 mi WSW 2.3 mph - -   Clear
7:00 PM 59.0 °F 46.4 °F 63% 30.12 in - Calm Calm - N/A   Clear
7:30 PM 60.8 °F 44.6 °F 55% 30.12 in - WSW 4.6 mph - N/A   Clear